Regional Weather Roundup
Issued by NWS

Home | Current Version | Previous Version | Text Only | Print | Product List | Glossary Off
Versions: 1 2 3 4 5 6 7 8 9 10 11 12 13 14 15 16 17 18 19 20 21 22 23 24 25 26 27

000
ASUS45 KCYS 161610
RWRWY

WYOMING REGIONAL WEATHER ROUNDUP
NATIONAL WEATHER SERVICE CHEYENNE WY
1000 AM MDT WED APR 16 2014

NOTE:  "FAIR" INDICATES FEW OR NO CLOUDS BELOW 12,000 FEET
WITH NO SIGNIFICANT WEATHER AND/OR OBSTRUCTIONS TO VISIBILITY.

WYZ001-161700-
YELLOWSTONE NATIONAL PARK

CITY           SKY/WX    TMP DP  RH WIND       PRES   REMARKS
LK YELLOWSTONE   N/A     22  14  71 SE5       29.99F WCI  16
W YELLOWSTONE  NOT AVBL

$$
WYZ002>013-054>058-071-098>099-161700-
NORTHERN WYOMING

CITY           SKY/WX    TMP DP  RH WIND       PRES   REMARKS
JACKSON        SUNNY     32  19  59 MISG      30.01R
CODY           SUNNY     41  21  45 NE7       29.95S
GREYBULL       CLOUDY    43  32  65 NW7       29.97R
WORLAND        PTSUNNY   42  31  64 NW6       29.97S
SHERIDAN       CLOUDY    39  33  79 NW21      29.97R WCI  29
BUFFALO        LGT SNOW  35  32  88 N22G30    29.95R FOG     WCI  23
GILLETTE       PTSUNNY   39  29  67 NW17      29.93R WCI  30
HULETT         PTSUNNY   37  30  75 NW10      29.93  WCI  30
NEWCASTLE      FAIR      37  32  81 NW21G26   29.91  WCI  27

$$
WYZ014>020-022>026-101>103-161700-
CENTRAL WYOMING

CITY           SKY/WX    TMP DP  RH WIND       PRES   REMARKS
BIG PINEY      SUNNY     34  14  43 VRB6      30.00S WCI  29
PINEDALE       SUNNY     27  19  74 NW5       30.00R WCI  21
DUBOIS         FAIR      32  16  51 N9        29.95S WCI  24
LANDER         SUNNY     40  23  50 N8        29.96S WCI  34
RIVERTON       MOSUNNY   39  26  59 E9        29.97S WCI  33
CASPER         CLOUDY    36  29  75 CALM      29.97R
DOUGLAS        CLOUDY    37  28  70 NW18      29.97R WCI  27

$$
WYZ021-027>030-104>119-161700-
SOUTHERN WYOMING

CITY           SKY/WX    TMP DP  RH WIND       PRES   REMARKS
EVANSTON       PTSUNNY   37  12  35 W7        29.99F WCI  32
KEMMERER       MOSUNNY   34  12  40 W7        30.01R WCI  28
FORT BRIDGER   FAIR      37  14  39 NW5       30.03S WCI  33
ROCK SPRINGS   SUNNY     38   9  30 NW15      29.99R WCI  29
DIXON          PTSUNNY   39  17  40 W10       30.02S WCI  32
RAWLINS        CLOUDY    33  23  66 SW5       29.97S WCI  29
SARATOGA       FAIR      36  18  48 NW12G18   29.98S WCI  27
LARAMIE        CLOUDY    31  24  75 NW18      29.94R WCI  19
CHEYENNE       MOSUNNY   39  23  52 NW25G36   29.92R WCI  28
TORRINGTON     MOSUNNY   45  28  51 NW18G31   29.90R
PINE BLUFFS    PTSUNNY   41  27  56 NW24G35   29.92R

$$



USA.gov is the U.S. government's official web portal to all federal, state and local government web resources and services.